Location: Großbockenheim
(49.6000°N, 8.1833°E)
Time: 10:08:35
(UTC+00:00)

Daily predictions for brighter satellites

Satellite Brightness Start Highest point End
(mag) Time Altitude Azimuth Time Altitude Azimuth Time Altitude Azimuth
Cosmos 836 Rocket 4.5 20:08:42 10° SSW 20:13:50 72° ESE 20:19:03 10° NNE
Sich 1 3.5 20:12:23 10° N 20:16:30 44° ENE 20:20:35 10° SSE
BREEZE-M R/B 4.5 20:10:03 10° WNW 20:18:40 69° SSW 20:24:17 10° SE
Terra 3.3 20:22:14 10° SSW 20:26:31 34° W 20:30:50 10° NNW
Cosmos 44 Rocket 4.1 20:23:39 10° NW 20:28:38 50° WSW 20:33:29 10° SSE
CENTAUR R/B 2.9 20:23:13 10° SW 20:28:51 73° NW 20:36:08 10° NE
Cosmos 1758 3.5 20:27:32 10° N 20:31:09 50° ENE 20:34:45 10° SSE
Meteor 1-27 Rocket 4.4 20:28:33 10° SSW 20:34:02 59° WNW 20:39:32 10° N
Cosmos 2208 Rocket 4.0 20:30:32 10° SSW 20:35:42 77° ESE 20:40:54 10° NNE
BREEZE-M DEB (TANK) 1.4 20:34:52 10° W 20:37:26 82° S 20:39:26 10° E
SPOT 3 Rocket 3.6 20:34:25 10° SSE 20:39:31 81° ENE 20:44:42 10° NNW
SL-12 R/B (Aux Motor) 4.4 20:39:00 10° WSW 20:41:21 48° S 20:45:40 10° E
FAST 4.4 20:39:48 10° N 20:42:27 85° W 20:45:24 10° S
YAOGAN 11 4.2 20:38:08 10° NNE 20:42:38 87° WNW 20:47:03 10° SSW
Cosmos 2227 4.2 20:39:56 10° SSW 20:45:41 84° ESE 20:51:29 10° NNE
Okean 3 Rocket 3.6 20:42:17 10° N 20:46:46 79° E 20:51:06 10° SSE
Cosmos 724 4.4 20:41:38 10° NW 20:47:29 76° NE 20:52:53 12° SE
CZ-4 R/B 4.2 20:47:10 10° W 20:48:04 11° W 20:48:58 10° WNW
Helios 1A Rocket 4.4 20:45:55 10° N 20:48:37 27° WNW 20:51:19 10° SW
Ariane Rocket 3.0 20:44:08 10° SSE 20:49:10 76° ENE 20:54:15 10° NNW
IRS-1C Rocket 4.1 20:44:30 10° SSE 20:49:43 77° ENE 20:54:59 10° NNW
Okean-O 3.7 20:46:15 10° S 20:50:23 42° W 20:54:34 10° NNW
Cosmos 1805 Rocket 3.7 20:48:46 10° N 20:53:03 58° ENE 20:56:46 13° SSE
Cosmos 1340 Rocket 2.6 20:52:39 10° NNW 20:56:27 86° W 20:59:47 13° S
NOSS 3-2 (A) 3.1 20:51:29 10° SSW 20:56:28 75° SE 21:02:31 10° NE
Cosmos 1408 Rocket 3.7 20:52:50 10° N 20:57:13 65° ENE 21:01:00 14° SSE
USA 215 3.4 20:51:06 10° ESE 20:57:37 78° NNE 21:04:09 10° WNW
Cosmos 1842 Rocket 4.0 20:53:47 10° SSW 20:58:10 63° WNW 21:02:36 10° N
Cosmos 1603 3.9 20:52:47 10° NNW 20:58:31 69° WSW 21:03:42 12° SSE
BREEZE-M DEB (TANK) 3.4 21:01:08 10° SW 21:01:43 11° SW 21:02:13 10° SSW
Cosmos 1743 Rocket 4.1 21:00:23 10° N 21:04:34 46° ENE 21:07:49 16° SE
Cosmos 1703 3.7 21:04:34 17° SE 21:06:20 30° E 21:09:10 10° NNE
USA 245 3.7 21:03:10 10° S 21:06:51 48° WSW 21:09:54 10° NNW
Cosmos 1844 Rocket 3.0 21:02:36 10° SW 21:08:09 70° WNW 21:13:44 10° NNE
SL-14 R/B 3.7 21:07:21 10° SSW 21:11:01 57° WNW 21:14:42 10° N
Cosmos 1553 Rocket 4.1 21:07:34 10° S 21:13:55 73° E 21:20:13 10° NNE
CZ-4C R/B 4.0 21:08:26 10° NW 21:14:56 37° WSW 21:22:42 10° S
Cosmos 1833 Rocket 3.2 21:12:45 10° NNW 21:18:18 52° NE 21:22:56 14° SE
Cosmos 1151 Rocket 3.0 21:14:26 10° S 21:18:41 86° ESE 21:23:04 10° N
Cosmos 2082 Rocket 4.3 21:19:07 10° N 21:23:04 19° NE 21:27:00 10° E
CZ-2C R/B 1.8 21:23:48 23° S 21:25:19 77° W 21:28:04 10° NNW
Cosmos 1953 2.6 21:24:07 10° N 21:27:35 45° ENE 21:29:35 22° SE
SL-24 R/B - RUBIN 2 4.4 21:24:29 10° WSW 21:28:53 53° NW 21:33:11 10° NE
CZ-4B R/B 4.1 21:24:45 13° S 21:29:14 54° W 21:34:21 10° NNW
Cosmos 1844 4.5 21:23:42 10° SW 21:29:23 56° NW 21:35:07 10° NNE
Cosmos 2278 Rocket 4.1 21:28:07 11° ESE 21:30:04 13° E 21:32:35 10° ENE
Okean O Rocket 3.9 21:27:04 10° SW 21:30:05 18° W 21:33:07 10° NW
Cosmos 1633 Rocket 3.8 21:31:20 10° N 21:35:28 40° ENE 21:38:07 19° SE
NOSS 3-2 (C) 3.1 21:32:56 10° SSW 21:37:52 60° SE 21:43:46 10° NE
Cosmos 1461 4.1 21:40:38 10° WNW 21:43:26 23° WSW 21:45:06 16° SSW
NOSS 2-3 (C) 3.6 21:42:37 26° SSE 21:43:49 34° ESE 21:47:04 10° ENE
Cosmos 1745 Rocket 4.0 21:40:09 10° N 21:46:26 82° E 21:51:04 20° SSE
Helios 1A 3.0 21:51:37 10° NNE 21:55:29 54° E 21:57:27 26° SSE
Cosmos 2344 3.8 21:48:48 10° SSW 21:56:18 47° ESE 22:03:06 10° NE
GP-B 3.8 21:53:38 10° N 21:57:52 48° W 22:01:23 14° SSW
Helios 1B rocket 2.7 21:57:42 25° SE 21:59:17 42° ENE 22:02:35 10° N
Iridium 4 Rocket 3.8 21:55:05 15° SSW 21:59:35 68° W 22:04:38 10° N
BREEZE-M R/B 4.5 21:57:28 13° SSW 22:01:35 40° SE 22:10:18 10° ENE
ARIANE 5 R/B 3.6 21:59:12 19° SE 22:01:54 38° ENE 22:06:01 10° N
SWARM A 4.5 22:01:02 10° N 22:04:14 60° W 22:05:43 28° SSW
Cosmos 1470 Rocket 3.9 22:02:57 10° N 22:07:21 55° ENE 22:09:41 26° SE
Okean 2 4.1 22:07:04 26° SE 22:08:26 35° E 22:11:57 10° NNE
Cosmos 1241 Rocket 4.4 22:02:55 10° SSW 22:09:04 72° ESE 22:15:18 10° NE
Cosmos 1420 Rocket 4.0 22:04:47 10° NNW 22:10:02 81° ENE 22:13:10 25° SSE
NOSS 2-3 (D) 3.1 22:07:22 10° SW 22:11:03 84° NW 22:14:56 10° NE
ALOS 2 3.4 22:11:55 21° SE 22:14:23 42° ENE 22:18:33 10° N
Cosmos 1538 Rocket 4.1 22:11:35 13° SSW 22:16:11 79° WNW 22:21:27 10° NNE
Cosmos 2315 Rocket 4.0 22:13:38 21° S 22:17:59 80° E 22:24:14 10° NNE
Cosmos 1943 Rocket 2.8 22:16:33 24° SSE 22:19:17 40° ESE 22:24:30 10° NE
Meteor 1-21 4.2 22:18:13 23° S 22:21:45 74° E 22:27:24 10° NNE
Cosmos 923 Rocket 4.1 22:21:15 25° S 22:24:11 59° ESE 22:29:20 10° NNE
Cosmos 1328 Rocket 3.7 22:24:39 23° SSW 22:27:18 70° W 22:31:40 10° N
CZ-2C R/B 3.9 22:22:48 10° NNE 22:27:27 61° ESE 22:29:46 28° S
Lacrosse 5 rocket 1.1 22:30:44 38° S 22:31:35 49° SE 22:35:00 10° ENE
Cosmos 1666 Rocket 4.3 22:31:07 10° NNW 22:35:16 44° W 22:37:29 24° SSW
CZ-2C R/B 3.8 22:31:43 15° ESE 22:35:24 33° ENE 22:40:02 10° N
USA 81 4.2 22:32:48 10° N 22:38:03 64° E 22:40:53 27° SSE
NOSS 2-3 (E) 4.1 22:35:11 10° WSW 22:38:44 48° NW 22:42:32 10° NE
Cosmos 1371 Rocket 4.1 22:35:22 10° NNW 22:40:40 76° ENE 22:43:38 26° SSE
USA 215 3.7 22:37:29 24° S 22:40:58 43° SW 22:47:08 10° WNW
PSLV R/B 4.1 22:38:12 10° NNE 22:42:45 52° E 22:44:44 30° SSE
Cosmos 1869 Rocket 4.2 22:42:34 10° N 22:46:44 45° ENE 22:48:44 26° SE
GEOS 3 Rocket 3.8 22:45:16 27° SSE 22:48:11 63° SW 22:53:33 10° NW
MetOp-A 4.1 22:53:36 25° SE 22:55:27 44° ENE 22:59:07 10° N
NOSS 2-1 (D) 3.7 22:55:58 33° SE 22:55:58 33° SE 22:58:48 10° ENE
Cosmos 1515 Rocket 3.5 22:55:38 32° SSW 22:57:39 82° W 23:02:01 10° N
Cosmos 2154 Rocket 4.2 22:51:53 10° N 22:58:04 66° ENE 23:01:51 25° SSE
ARGOS Delta rocket 4.4 22:53:35 10° N 22:58:55 64° WNW 23:02:18 22° SSW
NOSS 2-1 (C) 4.0 22:59:06 29° ESE 22:59:06 29° ESE 23:01:46 10° ENE
Cosmos 2184 Rocket 4.1 22:52:50 10° N 22:59:06 72° ENE 23:02:54 25° SSE
USA 59 Rocket -0.3 23:01:29 43° SE 23:01:42 44° SE 23:04:38 10° NE
Spot 4 4.1 22:59:30 30° S 23:01:47 61° WSW 23:06:35 10° NNW
Cosmos 1833 Rocket 3.8 22:57:04 10° NW 23:01:57 31° WSW 23:04:36 21° SSW
Cosmos 1953 4.4 23:00:07 10° NW 23:02:06 14° W 23:03:47 11° WSW
SAR-Lupe-2 3.3 23:05:49 46° SE 23:06:37 71° ENE 23:09:50 10° N
Cosmos 1733 Rocket 4.4 23:02:55 10° N 23:06:46 31° ENE 23:09:08 19° ESE
Cosmos 2082 Rocket 2.3 23:02:30 10° NNW 23:08:10 73° ENE 23:11:51 22° SE
Okean 3 3.2 23:09:18 38° S 23:10:45 90° E 23:14:47 10° N
Cosmos 2278 Rocket 2.2 23:09:54 27° SSW 23:13:08 76° ESE 23:18:48 10° NNE
Cosmos 1331 Rocket 4.1 23:15:20 10° NNW 23:20:29 70° ENE 23:23:34 24° SE
Okean 1-7 4.2 23:20:00 23° SE 23:21:36 30° E 23:25:17 10° NNE
Cosmos 1400 Rocket 3.2 23:20:59 10° NNW 23:24:31 45° W 23:25:30 35° SW
Cosmos 1624 Rocket 4.5 23:19:48 10° NNW 23:24:53 49° WSW 23:27:15 29° SSW
Cosmos 1680 Rocket 3.8 23:22:43 21° SW 23:26:08 62° WNW 23:31:19 10° NNE
COSMOS 2406 3.9 23:20:50 10° NNW 23:26:25 52° NE 23:31:27 13° SE
CZ-2C R/B 3.1 23:21:12 10° NNE 23:26:50 81° ESE 23:29:38 29° S
Cosmos 494 Rocket 4.1 23:24:38 24° SW 23:27:51 71° WNW 23:33:07 10° NNE
Cosmos 2056 Rocket 4.1 23:26:50 10° NW 23:31:35 40° WSW 23:33:39 28° SSW
Helios 1B rocket 4.1 23:31:35 14° WSW 23:32:25 15° W 23:34:34 10° NW
Cosmos 1048 Rocket 4.0 23:31:19 31° S 23:33:48 68° ESE 23:39:02 10° NNE
Cosmos 1328 3.6 23:35:16 44° SSE 23:36:12 65° E 23:39:45 10° NNE
Cosmos 1812 4.0 23:35:13 10° NW 23:35:32 13° NW 23:35:32 13° NW
ARIANE 5 R/B 4.0 23:36:34 21° SW 23:38:16 27° W 23:42:05 10° NW
ACS3 Solar Sail 2.0 23:34:27 10° NNE 23:40:03 53° E 23:43:12 26° SSE
USA 238 DEB 3.6 23:36:16 16° SW 23:41:21 82° NW 23:48:14 10° NE
USA 238 3.6 23:36:31 16° SW 23:41:33 82° NW 23:48:27 10° NE
Lacrosse 4 Rocket 4.3 23:39:45 10° N 23:42:27 16° NE 23:45:10 10° ENE
Geosat 4.2 23:42:26 10° NE 23:47:24 58° ESE 23:49:42 30° S
Cosmos 546 4.4 23:46:12 11° WSW 23:49:50 88° S 23:53:39 10° ENE
BREEZE-M DEB (TANK) 3.1 23:38:27 10° W 23:50:17 86° SSW 23:54:02 10° ESE
ALOS 2 4.1 23:49:18 20° SW 23:50:53 24° W 23:54:28 10° NW
SWAS 4.3 23:52:24 38° S 23:53:49 71° ESE 23:57:52 10° NE
TIMED 4.4 23:53:01 35° SSW 23:54:45 85° ESE 23:59:02 10° NNE
Cosmos 1441 Rocket 4.0 23:54:17 26° WSW 23:55:17 33° WNW 23:58:16 10° N
